| time (UTC) | temp F | wind direction | speed MPH | gust MPH | rain 1hr in | rain 24hr in | rain mn in | humidity % | barometer mb |
| 20260504194532 | 71 | 131 | 4.0 | 18.0 | 0.00 | 0.00 | 0.00 | 23 | 997.1 |
| 20260504193020 | 72 | 131 | 5.0 | 13.0 | 0.00 | 0.00 | 0.00 | 23 | 997.2 |
| 20260504191518 | 74 | 131 | 3.0 | 9.0 | 0.00 | 0.00 | 0.00 | 19 | 997.3 |
| 20260504190017 | 76 | 131 | 1.0 | 5.0 | 0.00 | 0.00 | 0.00 | 19 | 997.4 |
| 20260504184514 | 76 | 131 | 2.0 | 6.0 | 0.00 | 0.00 | 0.00 | 20 | 997.5 |
| 20260504183012 | 74 | 131 | 2.0 | 6.0 | 0.00 | 0.00 | 0.00 | 20 | 997.9 |
| 20260504181506 | 73 | 131 | 1.0 | 6.0 | 0.00 | 0.00 | 0.00 | 22 | 998.1 |
| 20260504180002 | 70 | 131 | 1.0 | 7.0 | 0.00 | 0.00 | 0.00 | 24 | 998.3 |
| 20260504174558 | 69 | 131 | 2.0 | 9.0 | 0.00 | 0.00 | 0.00 | 25 | 998.6 |
| 20260504173110 | 67 | 131 | 4.0 | 9.0 | 0.00 | 0.00 | 0.00 | 26 | 998.9 |
| 20260504171550 | 66 | 131 | 5.0 | 10.0 | 0.00 | 0.00 | 0.00 | 27 | 999.1 |
| 20260504081551 | 49 | 131 | 0.0 | 1.0 | 0.00 | 0.00 | 0.00 | 36 | 1000.0 |
| 20260504044531 | 55 | 131 | 3.0 | 8.0 | 0.00 | 0.00 | 0.00 | 31 | 1001.4 |
| 20260504043028 | 57 | 131 | 0.0 | 2.0 | 0.00 | 0.00 | 0.00 | 29 | 1000.8 |
| 20260504041526 | 59 | 131 | 0.0 | 4.0 | 0.00 | 0.00 | 0.00 | 27 | 1000.9 |
| 20260504040030 | 60 | 131 | 2.0 | 5.0 | 0.00 | 0.00 | 0.00 | 26 | 1001.0 |
| 20260504034538 | 60 | 131 | 1.0 | 5.0 | 0.00 | 0.00 | 0.00 | 26 | 1001.2 |
| 20260504033030 | 61 | 131 | 1.0 | 5.0 | 0.00 | 0.00 | 0.00 | 25 | 1001.1 |
| 20260504031525 | 62 | 131 | 1.0 | 4.0 | 0.00 | 0.00 | 0.00 | 25 | 1001.1 |
| 20260504030036 | 63 | 131 | 1.0 | 6.0 | 0.00 | 0.00 | 0.00 | 24 | 1000.9 |
| 20260504024524 | 63 | 131 | 2.0 | 6.0 | 0.00 | 0.00 | 0.00 | 23 | 1000.9 |
| 20260504023023 | 64 | 131 | 3.0 | 8.0 | 0.00 | 0.00 | 0.00 | 23 | 1000.7 |
| 20260504021523 | 64 | 131 | 2.0 | 5.0 | 0.00 | 0.00 | 0.00 | 23 | 1000.7 |
| 20260504020022 | 64 | 131 | 0.0 | 1.0 | 0.00 | 0.00 | 0.00 | 22 | 1000.6 |
| 20260504014524 | 65 | 131 | 0.0 | 2.0 | 0.00 | 0.00 | 0.00 | 22 | 1000.6 |
| 20260504013023 | 66 | 131 | 0.0 | 4.0 | 0.00 | 0.00 | 0.00 | 21 | 1000.5 |
| 20260504011522 | 67 | 131 | 0.0 | 4.0 | 0.00 | 0.00 | 0.00 | 21 | 1000.5 |
| 20260504010019 | 68 | 131 | 0.0 | 2.0 | 0.00 | 0.00 | 0.00 | 21 | 1000.7 |
| 20260504004520 | 68 | 131 | 0.0 | 6.0 | 0.00 | 0.00 | 0.00 | 21 | 1001.0 |
| 20260504003015 | 69 | 131 | 2.0 | 9.0 | 0.00 | 0.00 | 0.00 | 20 | 1001.1 |
| 20260504001515 | 70 | 131 | 2.0 | 10.0 | 0.00 | 0.00 | 0.00 | 19 | 1001.1 |
| 20260504000015 | 70 | 131 | 2.0 | 6.0 | 0.00 | 0.00 | 0.00 | 20 | 1001.1 |
| 20260503234513 | 70 | 131 | 0.0 | 7.0 | 0.00 | 0.00 | 0.00 | 20 | 1001.1 |
| 20260503233012 | 70 | 131 | 4.0 | 14.0 | 0.00 | 0.00 | 0.00 | 20 | 1001.3 |
| 20260503231516 | 71 | 131 | 5.0 | 18.0 | 0.00 | 0.00 | 0.00 | 18 | 1001.4 |
| 20260503230012 | 74 | 131 | 0.0 | 8.0 | 0.00 | 0.00 | 0.00 | 17 | 1001.1 |
| 20260503224509 | 72 | 131 | 4.0 | 13.0 | 0.00 | 0.00 | 0.00 | 15 | 1001.2 |
| 20260503223017 | 71 | 131 | 0.0 | 6.0 | 0.00 | 0.00 | 0.00 | 18 | 1001.4 |
| 20260503221507 | 72 | 131 | 0.0 | 6.0 | 0.00 | 0.00 | 0.00 | 16 | 1001.4 |
| 20260503220009 | 75 | 131 | 0.0 | 7.0 | 0.00 | 0.00 | 0.00 | 16 | 1001.8 |
| 20260503214504 | 72 | 131 | 1.0 | 7.0 | 0.00 | 0.00 | 0.00 | 17 | 1002.1 |
| 20260503213003 | 72 | 131 | 0.0 | 4.0 | 0.00 | 0.00 | 0.00 | 15 | 1002.1 |
| 20260503211502 | 73 | 131 | 0.0 | 5.0 | 0.00 | 0.00 | 0.00 | 14 | 1002.1 |
| 20260503210001 | 74 | 131 | 0.0 | 4.0 | 0.00 | 0.00 | 0.00 | 13 | 1002.2 |
| 20260503204621 | 75 | 131 | 0.0 | 4.0 | 0.00 | 0.00 | 0.00 | 13 | 1002.4 |
| 20260503203114 | 75 | 131 | 2.0 | 9.0 | 0.00 | 0.00 | 0.00 | 12 | 1002.6 |
| 20260503201557 | 75 | 131 | 1.0 | 5.0 | 0.00 | 0.00 | 0.00 | 12 | 1002.8 |
| 20260503200055 | 75 | 131 | 1.0 | 8.0 | 0.00 | 0.00 | 0.00 | 13 | 1002.9 |